DW6648 Weather Reports


time (UTC)temp
F
wind
direction
speed
knots
gust
knots
rain 1hr
in
rain 24hr
in
rain mn
in
humidity
%
barometer
mb
20260506011320 52 13 0.0 0.0 0.00 0.00 0.00 75 1011.6
20260506010320 52 35 0.0 0.0 0.00 0.00 0.00 75 1011.6
20260506005320 52 26 0.0 0.0 0.00 0.00 0.00 75 1011.6
20260506004820 52 20 0.0 0.0 0.00 0.00 0.00 74 1011.6
20260506004319 52 30 0.0 0.0 0.00 0.00 0.00 74 1011.6
20260506003820 52 9 0.0 0.0 0.00 0.00 0.00 74 1011.7
20260506001320 53 5 0.0 0.0 0.00 0.00 0.00 74 1011.7
20260506000821 53 20 0.0 0.0 0.00 0.00 0.00 73 1011.8
20260506000319 53 11 0.0 0.0 0.00 0.00 0.00 73 1011.7
20260505235819 53 355 0.0 0.0 0.00 0.00 0.00 73 1011.7
20260505234819 53 15 0.0 0.0 0.00 0.00 0.00 73 1011.7
20260505234319 53 359 0.0 0.0 0.00 0.00 0.00 73 1011.8
20260505233320 53 332 0.0 0.0 0.00 0.00 0.00 72 1011.7
20260505232818 53 4 0.0 0.0 0.00 0.00 0.00 72 1011.7
20260505232318 53 13 0.0 0.0 0.00 0.00 0.00 72 1011.7
20260505231318 53 356 0.0 0.0 0.00 0.00 0.00 72 1011.8
20260505230828 53 353 0.0 0.0 0.00 0.00 0.00 72 1011.8
20260505230318 54 355 0.0 0.0 0.00 0.00 0.00 72 1011.9
20260505225817 54 344 0.0 0.0 0.00 0.00 0.00 71 1011.9
20260505224817 54 346 0.0 0.0 0.00 0.00 0.00 71 1011.9
20260505223317 54 2 0.0 0.0 0.00 0.00 0.00 71 1011.8
20260505222817 54 0 0.0 0.0 0.00 0.00 0.00 71 1011.8
20260505220316 54 341 0.0 0.0 0.00 0.00 0.00 70 1012.0
20260505215817 54 356 0.0 0.0 0.00 0.00 0.00 70 1012.0
20260505213316 55 324 0.0 0.0 0.00 0.00 0.00 68 1012.0
20260505212315 55 356 0.0 0.0 0.00 0.00 0.00 67 1011.9
20260505211316 55 343 0.0 0.0 0.00 0.00 0.00 67 1012.0
20260505210816 56 329 0.0 0.0 0.00 0.00 0.00 67 1012.0
20260505210315 56 6 0.0 0.0 0.00 0.00 0.00 66 1011.9
20260505204816 56 337 0.0 0.0 0.00 0.00 0.00 66 1011.8
20260505203815 57 357 0.0 0.0 0.00 0.00 0.00 65 1011.8
20260505203316 57 1 0.0 0.0 0.00 0.00 0.00 65 1011.7
20260505202315 57 23 0.0 0.0 0.00 0.00 0.00 65 1011.7
20260505200314 57 9 0.0 0.0 0.00 0.00 0.00 65 1011.7
20260505195814 57 26 0.0 0.0 0.00 0.00 0.00 64 1011.6
20260505195315 57 3 0.0 0.0 0.00 0.00 0.00 64 1011.5
20260505193815 58 19 0.0 0.0 0.00 0.00 0.00 64 1011.4
20260505193315 58 8 0.0 0.0 0.00 0.00 0.00 64 1011.3
20260505192814 58 12 0.0 0.0 0.00 0.00 0.00 63 1011.3
20260505191313 58 36 0.0 0.0 0.00 0.00 0.00 63 1011.3
20260505190813 58 21 0.0 0.0 0.00 0.00 0.00 63 1011.2
20260505190313 58 32 0.0 0.0 0.00 0.00 0.00 63 1011.1
20260505185314 59 351 0.0 0.0 0.00 0.00 0.00 63 1011.1
20260505184814 59 5 0.0 0.0 0.00 0.00 0.00 63 1011.0
20260505184314 59 21 0.0 0.0 0.00 0.00 0.00 64 1011.0
20260505182813 59 18 0.0 0.0 0.00 0.00 0.00 63 1010.9
20260505181813 59 38 0.0 0.0 0.00 0.00 0.00 63 1010.8
20260505180813 59 21 0.0 0.0 0.00 0.00 0.00 63 1010.8
20260505180312 59 29 0.0 0.0 0.00 0.00 0.00 62 1010.9
20260505175812 60 21 0.0 0.0 0.00 0.00 0.00 62 1010.9
20260505171812 60 34 0.0 0.0 0.00 0.00 0.00 62 1011.0
20260505171311 60 8 0.0 0.0 0.00 0.00 0.00 62 1011.1
20260505170311 60 34 0.0 0.0 0.00 0.00 0.00 61 1011.2
20260505165311 60 37 0.0 0.0 0.00 0.00 0.00 62 1011.2
20260505162810 60 43 0.0 0.0 0.00 0.00 0.00 61 1011.1
20260505162311 60 44 0.0 0.0 0.00 0.00 0.00 61 1011.1
20260505161811 60 3 0.0 0.0 0.00 0.00 0.00 61 1011.1
20260505152810 61 0 0.0 0.0 0.00 0.00 0.00 60 1011.2
20260505152310 61 334 0.0 0.0 0.00 0.00 0.00 60 1011.1
20260505151810 61 32 0.0 0.0 0.00 0.00 0.00 60 1011.2
20260505151310 61 352 0.0 0.0 0.00 0.00 0.00 60 1011.2
20260505124807 66 0 0.0 0.0 0.00 0.00 0.00 53 1011.5
20260505124307 66 35 0.0 0.0 0.00 0.00 0.00 52 1011.5
20260505123807 65 7 0.0 0.0 0.00 0.00 0.00 52 1011.6
20260505123307 65 30 0.0 0.0 0.00 0.00 0.00 54 1011.6
20260505122807 64 44 0.0 0.0 0.00 0.00 0.00 54 1011.6
20260505122308 64 345 0.0 0.0 0.00 0.00 0.00 55 1011.6
20260505121806 64 34 0.0 0.0 0.00 0.00 0.00 56 1011.6
20260505121307 64 348 0.0 0.0 0.00 0.00 0.00 56 1011.5
20260505120306 63 18 0.0 0.0 0.00 0.00 0.00 59 1011.6
20260505115806 63 30 0.0 0.0 0.00 0.00 0.00 60 1011.7
20260505113808 62 13 0.0 0.0 0.00 0.00 0.00 62 1011.7
20260505113306 61 359 0.0 0.0 0.00 0.00 0.00 64 1011.7
20260505112805 61 39 0.0 0.0 0.00 0.00 0.00 64 1011.8
20260505112306 61 34 0.0 0.0 0.00 0.00 0.00 65 1011.9
20260505111806 61 357 0.0 0.0 0.00 0.00 0.00 64 1011.9
20260505110806 61 12 0.0 0.0 0.00 0.00 0.00 64 1011.9
20260505101304 59 45 0.0 0.0 0.00 0.00 0.00 67 1012.4
20260505100304 58 30 0.0 0.0 0.00 0.00 0.00 69 1012.4
20260505095305 58 16 0.0 0.0 0.00 0.00 0.00 67 1012.4
20260505093804 59 9 0.0 0.0 0.00 0.00 0.00 69 1012.5
20260505091804 59 4 0.0 0.0 0.00 0.00 0.00 68 1012.6
20260505090804 60 25 0.0 0.0 0.00 0.00 0.00 70 1012.6
20260505084830 58 15 0.0 0.0 0.00 0.00 0.00 72 1012.6
20260505084331 58 0 0.0 0.0 0.00 0.00 0.00 72 1012.6
20260505083830 58 34 0.0 0.0 0.00 0.00 0.00 73 1012.6
20260505082830 57 22 0.0 0.0 0.00 0.00 0.00 75 1012.6
20260505081830 56 35 0.0 0.0 0.00 0.00 0.00 75 1012.6
20260505081330 56 52 0.0 0.0 0.00 0.00 0.00 74 1012.7
20260505080831 56 19 0.0 0.0 0.00 0.00 0.00 74 1012.7
20260505080330 56 17 0.0 0.0 0.00 0.00 0.00 74 1012.7
20260505075330 56 349 0.0 0.0 0.00 0.00 0.00 74 1012.7
20260505074831 56 10 0.0 0.0 0.00 0.00 0.00 74 1012.7
20260505071830 56 57 0.0 0.0 0.00 0.00 0.00 75 1012.7
20260505070830 55 18 0.0 0.0 0.00 0.00 0.00 77 1012.7
20260505065329 54 33 0.0 0.0 0.00 0.00 0.00 81 1012.8
20260505063829 53 44 0.0 0.0 0.00 0.00 0.00 83 1013.0
20260505061329 52 42 0.0 0.0 0.00 0.00 0.00 85 1012.8
20260505060328 51 0 0.0 0.0 0.00 0.00 0.00 85 1012.7
20260505055327 51 0 0.0 0.0 0.00 0.00 0.00 85 1012.8
20260505054829 51 0 0.0 0.0 0.00 0.00 0.00 85 1012.8
20260505054328 51 0 0.0 0.0 0.00 0.00 0.00 85 1012.8
20260505053828 51 0 0.0 0.0 0.00 0.00 0.00 84 1012.8
20260505053327 51 21 0.0 0.0 0.00 0.00 0.00 84 1012.7
20260505052827 51 21 0.0 0.0 0.00 0.00 0.00 84 1012.7
20260505051826 51 53 0.0 0.0 0.00 0.00 0.00 84 1012.5
20260505050326 51 22 0.0 0.0 0.00 0.00 0.00 84 1012.5
20260505041326 53 37 0.0 0.0 0.00 0.00 0.00 83 1012.6
20260505040326 53 36 0.0 0.0 0.00 0.00 0.00 84 1012.6
20260505034325 54 13 0.0 0.0 0.00 0.00 0.00 84 1012.8
20260505032826 54 3 0.0 0.0 0.00 0.00 0.00 84 1012.9
20260505032325 54 42 0.0 0.0 0.00 0.00 0.00 84 1012.8
20260505031326 54 48 0.0 0.0 0.00 0.00 0.00 84 1012.9
20260505030825 54 15 0.0 0.0 0.00 0.00 0.00 84 1012.9
20260505030325 54 33 0.0 0.0 0.00 0.00 0.00 84 1013.0
20260505025825 54 12 0.0 0.0 0.00 0.00 0.00 84 1013.0
20260505024825 54 32 0.0 0.0 0.00 0.00 0.00 84 1013.0
20260505023825 54 347 0.0 0.0 0.00 0.00 0.00 84 1013.0
20260505023325 54 25 0.0 0.0 0.00 0.00 0.00 84 1012.9
20260505022824 54 21 0.0 0.0 0.00 0.00 0.00 84 1013.0
20260505022324 54 41 0.0 0.0 0.00 0.00 0.00 84 1012.9
20260505020824 54 50 0.0 0.0 0.00 0.00 0.00 84 1012.9
20260505020324 54 64 0.0 0.0 0.00 0.00 0.00 83 1013.0
20260505015824 54 66 0.0 0.0 0.00 0.00 0.00 83 1013.0
20260505015323 55 56 0.0 0.0 0.00 0.00 0.00 83 1013.0
20260505014823 55 67 0.0 0.0 0.00 0.00 0.00 83 1012.9
20260505014323 55 50 0.0 0.0 0.00 0.00 0.00 83 1013.0
20260505013823 55 62 0.0 0.0 0.00 0.00 0.00 83 1013.1
20260505012323 55 94 0.0 0.0 0.00 0.00 0.00 83 1013.3
20260505011823 55 62 0.0 0.0 0.00 0.00 0.00 83 1013.2